Regional Weather Roundup
Issued by NWS Little Rock, AR

Home | Current Version | Previous Version | Text Only | Print | Product List | Glossary On
Versions: 1 2 3 4 5 6 7 8 9 10 11 12 13 14 15 16 17 18 19 20 21 22 23 24 25 26 27 28 29 30 31 32 33 34 35 36 37 38 39 40 41 42 43 44 45 46 47 48 49
000
ASUS44 KLZK 220005
RWRLZK

WEATHER ROUNDUP FOR ARKANSAS
NATIONAL WEATHER SERVICE LITTLE ROCK AR
700 PM CDT SUN SEP 21 2014

NOTE: "FAIR" INDICATES FEW OR NO CLOUDS BELOW 12,000 FEET WITH NO
SIGNIFICANT WEATHER AND/OR OBSTRUCTIONS TO VISIBILITY.

ARZ001-003-010-029-220100-
NORTHWEST ARKANSAS

CITY           SKY/WX    TMP DP  RH WIND       PRES   REMARKS
FAYETTEVILLE   CLEAR     74  49  41 N6        30.12R
6HR MIN TEMP:  74; 6HR MAX TEMP:  81;

FORT SMITH     CLEAR     79  56  45 N10       30.05R
6HR MIN TEMP:  75; 6HR MAX TEMP:  85; 6HR PCP: TRACE;

HARRISON       CLEAR     69  49  48 NW5       30.12R
6HR MIN TEMP:  69; 6HR MAX TEMP:  82;

BENTONVILLE    CLEAR     72  50  46 N7        30.14S
6HR MIN TEMP:  72; 6HR MAX TEMP:  79;

ROGERS         CLEAR     71  50  47 N5        30.14R
6HR MIN TEMP:  71; 6HR MAX TEMP:  78;

SILOAM SPGS    PTCLDY    72  50  46 N6        30.13S
6HR MIN TEMP:  72; 6HR MAX TEMP:  79;

HIGHFILL       CLEAR     69  53  56 N7        30.13R
6HR MIN TEMP:  69; 6HR MAX TEMP:  80;

SPRINGDALE     PTCLDY    72  50  46 N98       30.14R
$$

ARZ004-005-016-220100-
NORTH CENTRAL ARKANSAS

CITY           SKY/WX    TMP DP  RH WIND       PRES   REMARKS
BATESVILLE     CLEAR     79  48  34 NW5       30.04R
6HR MIN TEMP:  79; 6HR MAX TEMP:  90;

FLIPPIN        CLEAR     75  46  35 N5        30.09R
6HR MIN TEMP:  75; 6HR MAX TEMP:  82;

MTN HOME       CLEAR     71  50  47 N5        30.08R
6HR MIN TEMP:  71; 6HR MAX TEMP:  82;

$$

ARZ040-041-220100-
WEST CENTRAL ARKANSAS

CITY           SKY/WX    TMP DP  RH WIND       PRES   REMARKS
MENA           NOT AVBL
MOUNT IDA      CLEAR     77  71  82 CALM      30.03R
6HR MIN TEMP:  77; 6HR MAX TEMP:  88; 6HR PCP: TRACE;

$$

ARZ009-017-025-026-028-220100-
NORTHEAST ARKANSAS

CITY           SKY/WX    TMP DP  RH WIND       PRES   REMARKS
CORNING          N/A     73  55  53 NW6       30.03S
JONESBORO      CLEAR     76  51  41 N5        30.01R
6HR MIN TEMP:  76; 6HR MAX TEMP:  89;

NEWPORT        CLEAR     73  55  53 N17       30.04R
6HR MIN TEMP:  73; 6HR MAX TEMP:  90;

WALNUT RIDGE   CLEAR     73  48  40 N6        30.02R
6HR MIN TEMP:  73; 6HR MAX TEMP:  84;

BLYTHEVILLE    CLEAR     71  57  61 N8        30.01R
6HR MIN TEMP:  71; 6HR MAX TEMP:  89;

$$

ARZ022-023-033-042-044-220100-
CENTRAL ARKANSAS

CITY           SKY/WX    TMP DP  RH WIND       PRES   REMARKS
LITTLE ROCK    PTCLDY    80  68  66 NW6       30.01R
6HR MIN TEMP:  80; 6HR MAX TEMP:  90;

N LITTLE ROCK  PTCLDY    78  72  83 NW5       30.01R
6HR MIN TEMP:  77; 6HR MAX TEMP:  87;

JACKSONVILLE   CLEAR     80  71  73 NW5       30.01S
6HR MIN TEMP:  80; 6HR MAX TEMP:  89;

SEARCY         CLEAR     82  66  58 N10       30.02R
6HR MIN TEMP:  82; 6HR MAX TEMP:  88;

HOT SPRINGS    PTCLDY    80  69  69 VRB6      30.03R
6HR MIN TEMP:  80; 6HR MAX TEMP:  90;

RUSSELLVILLE   PTCLDY    79  72  79 NW5       30.03S
6HR MIN TEMP:  76; 6HR MAX TEMP:  84; 6HR PCP:  0.03;

CLINTON        FAIR      73  63  68 CALM      30.06R
$$

ARZ036-220100-
EAST ARKANSAS

CITY           SKY/WX    TMP DP  RH WIND       PRES   REMARKS
WEST MEMPHIS   PTCLDY    81  68  64 N8        29.97R
6HR MIN TEMP:  81; 6HR MAX TEMP:  90;

$$

ARZ050-053-066-070-073-220100-
SOUTHWEST ARKANSAS

CITY           SKY/WX    TMP DP  RH WIND       PRES   REMARKS
ARKADELPHIA    FAIR      82  71  69 N9        30.01R HX  86
6HR MIN TEMP:  82; 6HR MAX TEMP:  92;

CAMDEN         LGT RAIN  81  73  78 CALM      29.99S HX  85
TEXARKANA      PTCLDY    81  72  74 CALM      30.00F HX  85
6HR MIN TEMP:  81; 6HR MAX TEMP:  92; 6HR PCP: TRACE;

EL DORADO      CLEAR     83  70  64 N6        29.99S HX  87
6HR MIN TEMP:  83; 6HR MAX TEMP:  92;

DE QUEEN       CLEAR     81  72  74 N5        30.00R HX  85
6HR MIN TEMP:  81; 6HR MAX TEMP:  91;

$$

ARZ056-057-069-220100-
SOUTHEAST ARKANSAS

CITY           SKY/WX    TMP DP  RH WIND       PRES   REMARKS
PINE BLUFF     PTCLDY    81  69  67 NW8       30.00S
6HR MIN TEMP:  81; 6HR MAX TEMP:  91;

STUTTGART      MOCLDY    81  72  74 NW7       30.00S
6HR MIN TEMP:  81; 6HR MAX TEMP:  91;

MONTICELLO     PTCLDY    83  71  67 CALM      29.98S HX  87
6HR MIN TEMP:  83; 6HR MAX TEMP:  93;


$$





USA.gov is the U.S. government's official web portal to all federal, state and local government web resources and services.